Hourly Weather Miranda de Ebro

Today, 15 April, Thursday

Time Temperature Precipitation Wind Pressure Humidity
00:00 +4°C° 0 mm 1 mps 721 mmHg 78%
01:00 +4°C° 0 mm 1 mps 721 mmHg 78%
02:00 +4°C° 0 mm 1 mps 721 mmHg 78%
03:00 +3°C° 0 mm 1 mps 720 mmHg 78%
04:00 +3°C° 0 mm 1 mps 721 mmHg 80%
05:00 +3°C° 0 mm 1 mps 721 mmHg 81%
06:00 +3°C° 0 mm 1 mps 721 mmHg 82%
07:00 +6°C° 0 mm 1 mps 721 mmHg 73%
08:00 +7°C° 0 mm 2 mps 721 mmHg 64%
09:00 +9°C° 0 mm 2 mps 721 mmHg 54%
10:00 +10°C° 0 mm 3 mps 721 mmHg 50%
11:00 +12°C° 0 mm 3 mps 720 mmHg 46%
12:00 +13°C° 0 mm 4 mps 720 mmHg 41%
13:00 +13°C° 0 mm 4 mps 720 mmHg 41%
14:00 +13°C° 0 mm 4 mps 720 mmHg 40%
15:00 +13°C° 0 mm 5 mps 719 mmHg 39%
16:00 +11°C° 0 mm 4 mps 720 mmHg 44%
17:00 +10°C° 0 mm 4 mps 720 mmHg 49%
18:00 +7°C° 0 mm 4 mps 720 mmHg 55%
19:00 +5°C° 0 mm 3 mps 721 mmHg 62%
20:00 +4°C° 0 mm 2 mps 721 mmHg 68%
21:00 +3°C° 0 mm 1 mps 722 mmHg 75%
22:00 +3°C° 0 mm 1 mps 722 mmHg 77%
23:00 +2°C° 0 mm 2 mps 722 mmHg 80%

Tomorrow, 16 April, Friday

Time Temperature Precipitation Wind Pressure Humidity
00:00 +2°C° 0 mm 2 mps 722 mmHg 82%
01:00 +3°C° 0 mm 1 mps 721 mmHg 84%
02:00 +2°C° 0 mm 1 mps 721 mmHg 86%
03:00 +2°C° 0 mm 1 mps 721 mmHg 88%
04:00 +3°C° 0 mm 1 mps 721 mmHg 86%
05:00 +3°C° 0 mm 1 mps 721 mmHg 84%
06:00 +3°C° 0 mm 2 mps 721 mmHg 83%
07:00 +4°C° 0 mm 2 mps 722 mmHg 77%
08:00 +4°C° 0 mm 3 mps 722 mmHg 71%
09:00 +5°C° 0 mm 4 mps 722 mmHg 65%
10:00 +6°C° 0 mm 4 mps 722 mmHg 58%
11:00 +7°C° 0 mm 5 mps 722 mmHg 50%
12:00 +8°C° 0 mm 5 mps 722 mmHg 43%
13:00 +8°C° 0 mm 5 mps 722 mmHg 42%
14:00 +8°C° 0 mm 6 mps 721 mmHg 41%
15:00 +8°C° 0 mm 6 mps 721 mmHg 41%
16:00 +7°C° 0 mm 6 mps 722 mmHg 46%
17:00 +6°C° 0 mm 5 mps 722 mmHg 52%
18:00 +5°C° 0 mm 4 mps 722 mmHg 58%
19:00 +4°C° 0 mm 3 mps 723 mmHg 66%
20:00 +3°C° 0 mm 2 mps 723 mmHg 75%
21:00 +3°C° 0 mm 1 mps 724 mmHg 83%
22:00 +3°C° 0 mm 1 mps 723 mmHg 82%
23:00 +4°C° 0 mm 1 mps 723 mmHg 82%

Day after tomorrow, 17 April, Saturday

Time Temperature Precipitation Wind Pressure Humidity
00:00 +4°C° 0 mm 1 mps 723 mmHg 81%
01:00 +4°C° 0 mm 1 mps 723 mmHg 84%
02:00 +4°C° 0 mm 1 mps 723 mmHg 87%
03:00 +4°C° 0 mm 1 mps 722 mmHg 90%
04:00 +4°C° 0.1 mm 1 mps 722 mmHg 90%
05:00 +4°C° 0.1 mm 1 mps 723 mmHg 90%
06:00 +4°C° 0.1 mm 1 mps 723 mmHg 90%
07:00 +4°C° 0.1 mm 2 mps 723 mmHg 85%
08:00 +5°C° 0.1 mm 2 mps 723 mmHg 80%
09:00 +5°C° 0.1 mm 3 mps 723 mmHg 75%
10:00 +5°C° 0 mm 3 mps 723 mmHg 72%
11:00 +7°C° 0 mm 3 mps 723 mmHg 68%
12:00 +7°C° 0 mm 4 mps 722 mmHg 65%
13:00 +7°C° 0 mm 4 mps 722 mmHg 62%
14:00 +8°C° 0 mm 4 mps 722 mmHg 59%
15:00 +8°C° 0 mm 4 mps 722 mmHg 56%
16:00 +7°C° 0 mm 4 mps 722 mmHg 60%
17:00 +7°C° 0 mm 4 mps 722 mmHg 63%
18:00 +7°C° 0 mm 3 mps 722 mmHg 67%
19:00 +5°C° 0 mm 3 mps 723 mmHg 74%
20:00 +4°C° 0 mm 2 mps 724 mmHg 81%
21:00 +4°C° 0 mm 1 mps 724 mmHg 89%
22:00 +4°C° 0 mm 1 mps 724 mmHg 88%
23:00 +4°C° 0 mm 1 mps 724 mmHg 87%

18 April, Sunday

Time Temperature Precipitation Wind Pressure Humidity
00:00 +4°C° 0 mm 1 mps 724 mmHg 86%
01:00 +4°C° 0 mm 1 mps 724 mmHg 86%
02:00 +4°C° 0 mm 1 mps 723 mmHg 85%
03:00 +4°C° 0 mm 1 mps 723 mmHg 84%
04:00 +4°C° 0 mm 1 mps 723 mmHg 84%
05:00 +4°C° 0 mm 1 mps 723 mmHg 83%
06:00 +5°C° 0 mm 1 mps 723 mmHg 83%
07:00 +6°C° 0 mm 1 mps 723 mmHg 75%
08:00 +8°C° 0 mm 1 mps 723 mmHg 68%
09:00 +10°C° 0 mm 1 mps 723 mmHg 60%
10:00 +12°C° 0 mm 1 mps 723 mmHg 55%
11:00 +14°C° 0 mm 1 mps 722 mmHg 50%
12:00 +16°C° 0 mm 1 mps 722 mmHg 45%
13:00 +16°C° 0 mm 1 mps 722 mmHg 43%
14:00 +18°C° 0 mm 1 mps 721 mmHg 40%
15:00 +19°C° 0 mm 1 mps 721 mmHg 38%
16:00 +18°C° 0 mm 1 mps 721 mmHg 44%
17:00 +16°C° 0 mm 1 mps 721 mmHg 49%
18:00 +15°C° 0 mm 1 mps 720 mmHg 55%
19:00 +13°C° 0 mm 1 mps 721 mmHg 59%
20:00 +11°C° 0 mm 1 mps 721 mmHg 64%
21:00 +10°C° 0 mm 1 mps 721 mmHg 68%
22:00 +9°C° 0 mm 1 mps 721 mmHg 69%
23:00 +9°C° 0 mm 1 mps 721 mmHg 70%

19 April, Monday

Time Temperature Precipitation Wind Pressure Humidity
00:00 +9°C° 0 mm 1 mps 721 mmHg 71%
01:00 +8°C° 0 mm 1 mps 721 mmHg 72%
02:00 +8°C° 0 mm 1 mps 720 mmHg 73%
03:00 +8°C° 0 mm 1 mps 720 mmHg 73%
04:00 +8°C° 0 mm 1 mps 720 mmHg 73%
05:00 +8°C° 0 mm 1 mps 720 mmHg 73%
06:00 +8°C° 0 mm 1 mps 720 mmHg 73%
07:00 +10°C° 0 mm 1 mps 720 mmHg 65%
08:00 +12°C° 0 mm 1 mps 720 mmHg 58%
09:00 +15°C° 0 mm 1 mps 720 mmHg 50%
10:00 +16°C° 0 mm 1 mps 719 mmHg 47%
11:00 +17°C° 0 mm 2 mps 719 mmHg 43%
12:00 +18°C° 0 mm 2 mps 719 mmHg 39%
13:00 +18°C° 0 mm 2 mps 718 mmHg 41%
14:00 +18°C° 0 mm 2 mps 718 mmHg 44%
15:00 +18°C° 0 mm 3 mps 717 mmHg 46%
16:00 +16°C° 0.1 mm 2 mps 717 mmHg 55%
17:00 +14°C° 0.1 mm 2 mps 717 mmHg 64%
18:00 +12°C° 0.1 mm 2 mps 717 mmHg 73%
19:00 +10°C° 0.2 mm 2 mps 718 mmHg 77%
20:00 +11°C° 0.2 mm 1 mps 718 mmHg 81%
21:00 +10°C° 0.2 mm 1 mps 718 mmHg 85%
22:00 +10°C° 0.4 mm 1 mps 718 mmHg 87%
23:00 +10°C° 0.4 mm 1 mps 717 mmHg 89%

20 April, Tuesday

Time Temperature Precipitation Wind Pressure Humidity
00:00 +9°C° 0.4 mm 0 mps 717 mmHg 92%
01:00 +8°C° 0.1 mm 0 mps 717 mmHg 92%
02:00 +8°C° 0.1 mm 0 mps 717 mmHg 92%
03:00 +8°C° 0.1 mm 0 mps 716 mmHg 93%
04:00 +9°C° 0.2 mm 0 mps 716 mmHg 93%
05:00 +10°C° 0.2 mm 1 mps 716 mmHg 93%
06:00 +10°C° 0.2 mm 1 mps 715 mmHg 93%
07:00 +10°C° 0.4 mm 1 mps 715 mmHg 90%
08:00 +11°C° 0.4 mm 1 mps 715 mmHg 87%
09:00 +12°C° 0.4 mm 1 mps 715 mmHg 84%
10:00 +12°C° 0.7 mm 1 mps 715 mmHg 83%
11:00 +12°C° 0.7 mm 1 mps 715 mmHg 82%
12:00 +12°C° 0.7 mm 1 mps 715 mmHg 81%
13:00 +12°C° 1.3 mm 2 mps 715 mmHg 82%
14:00 +12°C° 1.3 mm 2 mps 715 mmHg 83%
15:00 +11°C° 1.3 mm 3 mps 715 mmHg 85%
16:00 +12°C° 0.3 mm 2 mps 715 mmHg 85%
17:00 +10°C° 0.3 mm 2 mps 715 mmHg 85%
18:00 +11°C° 0.3 mm 1 mps 715 mmHg 85%
19:00 +11°C° 0.1 mm 1 mps 715 mmHg 88%
20:00 +10°C° 0.1 mm 1 mps 716 mmHg 90%
21:00 +9°C° 0.1 mm 1 mps 716 mmHg 93%
22:00 +8°C° 0 mm 1 mps 716 mmHg 94%
23:00 +8°C° 0 mm 1 mps 716 mmHg 95%
Show more

We Need Your Consent

Meteoprog and our Service Providers may store and access personal data such as cookies, device identifiers or other similar technologies on your device and process such data to personalise content and ads, as well as provide social media features and to analyse the traffic.

  • Store and/or access information on your device

    Cookies, device identifiers or other information can be stored or accessed on your device for the purposes indicated above.

  • Personalised ads and content, ad and content measurement, audience insights, and products development

    Ads and content can be personalised based on a profile. More data can be added to better personalise ads and content. Ad and content performance can be measured. Insights about the audience who saw the ads and content can be derived. Such data can be used to develop or improve user’s experience, systems and software.

By clicking ‘I Agree’ you will allow the use of indicated cookies, device identifiers, web beacons or other similar technologies. Your settings can be changed in the browser on your device.

For certain purposes, legitimate interests may be relied on, rather than consent. You can read more about this in our Privacy and Cookie Policy.